TimeEDT,TemperatureF,Dew PointF,Humidity,Sea Level PressureIn,VisibilityMPH,Wind Direction,Wind SpeedMPH,Gust SpeedMPH,PrecipitationIn,Events,Conditions,WindDirDegrees,DateUTC
12:53 AM,75.9,73.0,91,30.00,10.0,SW,4.6,-,N/A,,Mostly Cloudy,220,2013-07-24 04:53:00
1:53 AM,75.9,73.9,94,29.97,10.0,SSW,5.8,-,N/A,,Mostly Cloudy,210,2013-07-24 05:53:00
2:53 AM,75.9,75.0,97,29.95,10.0,SW,6.9,-,N/A,,Scattered Clouds,220,2013-07-24 06:53:00
3:53 AM,75.9,75.0,97,29.94,10.0,SW,6.9,-,N/A,,Partly Cloudy,220,2013-07-24 07:53:00
4:53 AM,75.9,75.0,97,29.94,10.0,SW,8.1,-,N/A,,Partly Cloudy,220,2013-07-24 08:53:00
5:53 AM,75.9,75.0,97,29.93,10.0,SW,6.9,-,N/A,,Partly Cloudy,230,2013-07-24 09:53:00
6:53 AM,75.9,75.0,97,29.95,10.0,SW,5.8,-,N/A,,Scattered Clouds,230,2013-07-24 10:53:00
7:53 AM,77.0,75.0,94,29.95,10.0,SW,5.8,-,N/A,,Mostly Cloudy,220,2013-07-24 11:53:00
8:53 AM,81.0,75.9,85,29.97,10.0,WSW,8.1,-,N/A,,Scattered Clouds,240,2013-07-24 12:53:00
9:53 AM,84.0,75.9,76,29.97,10.0,WSW,13.8,-,N/A,,Scattered Clouds,250,2013-07-24 13:53:00
10:13 AM,82.4,75.2,79,29.97,10.0,WSW,18.4,23.0,N/A,,Mostly Cloudy,250,2013-07-24 14:13:00
10:29 AM,84.2,75.2,74,29.97,10.0,WSW,11.5,-,N/A,,Scattered Clouds,250,2013-07-24 14:29:00
10:53 AM,84.9,75.0,72,29.96,10.0,West,19.6,-,N/A,,Mostly Cloudy,260,2013-07-24 14:53:00
11:53 AM,82.9,75.0,77,29.98,7.0,WNW,18.4,25.3,0.00,Rain,Light Rain,290,2013-07-24 15:53:00
12:04 PM,78.8,75.2,89,29.98,7.0,West,6.9,-,0.02,Rain,Light Rain,270,2013-07-24 16:04:00
12:53 PM,84.9,75.9,74,29.96,10.0,West,13.8,-,0.02,,Mostly Cloudy,280,2013-07-24 16:53:00
1:53 PM,82.0,72.0,71,29.97,10.0,NNW,13.8,26.5,N/A,,Mostly Cloudy,330,2013-07-24 17:53:00
2:05 PM,77.0,73.4,89,29.98,2.0,WNW,16.1,-,0.02,Rain,Rain,300,2013-07-24 18:05:00
2:15 PM,77.0,73.4,89,29.98,6.0,West,6.9,-,0.04,Rain-Thunderstorm,Light Thunderstorms and Rain,280,2013-07-24 18:15:00
2:32 PM,78.8,73.4,83,29.96,10.0,WSW,6.9,-,0.04,,Overcast,240,2013-07-24 18:32:00
2:53 PM,80.1,73.9,81,29.95,10.0,South,3.5,-,0.04,,Overcast,180,2013-07-24 18:53:00
3:53 PM,82.9,73.9,74,29.92,10.0,WSW,4.6,-,N/A,,Mostly Cloudy,240,2013-07-24 19:53:00
4:53 PM,84.9,73.0,67,29.90,10.0,WSW,8.1,-,N/A,,Mostly Cloudy,240,2013-07-24 20:53:00
5:53 PM,87.1,73.0,63,29.90,10.0,WSW,11.5,-,N/A,,Mostly Cloudy,250,2013-07-24 21:53:00
6:53 PM,86.0,73.9,67,29.90,10.0,West,11.5,-,N/A,,Overcast,260,2013-07-24 22:53:00
7:53 PM,84.9,73.9,69,29.92,10.0,West,12.7,-,N/A,,Overcast,260,2013-07-24 23:53:00
8:53 PM,82.9,73.9,74,29.92,10.0,West,9.2,-,N/A,,Overcast,260,2013-07-25 00:53:00
9:53 PM,82.0,75.0,79,29.93,10.0,West,9.2,-,N/A,,Mostly Cloudy,260,2013-07-25 01:53:00
10:53 PM,80.1,75.0,85,29.93,10.0,SSW,3.5,-,N/A,,Mostly Cloudy,210,2013-07-25 02:53:00
11:53 PM,79.0,75.9,90,29.93,10.0,SW,5.8,-,N/A,,Mostly Cloudy,220,2013-07-25 03:53:00